Lid_Strength_Index
4 4 4 4 4 4 4 4 4 4 4 5 5 6 6 5 5 11 12 8 7 3 2 7 9 9 8 7 6 6 11 13 14 14 14 14 15 14 14 15 13 13 14 13 12
4 4 4 4 4 4 4 4 4 4 4 4 5 6 6 5 11 13 6 4 3 1 8 10 9 8 9 8 9 10 13 14 15 16 16 15 16 16 16 15 15 15 14 12 12
4 4 4 4 4 4 4 4 4 4 4 4 4 6 7 7 13 13 4 4 2 3 9 10 10 8 11 11 12 13 14 14 16 15 15 15 16 15 16 17 17 16 14 12 12
4 4 4 4 4 4 4 4 4 4 4 4 4 4 6 9 18 12 4 4 3 8 10 11 12 12 14 15 13 14 15 14 14 14 15 16 14 15 15 16 14 15 14 13 13
3 4 4 4 4 4 4 4 4 4 4 4 3 2 9 15 15 10 4 7 10 10 12 12 13 14 16 15 14 16 16 15 15 14 15 14 15 16 16 15 14 13 12 13 13
3 3 3 3 3 3 4 4 4 4 4 4 3 2 11 17 11 10 10 10 11 12 13 13 14 14 15 15 16 15 15 16 15 15 14 15 15 14 15 14 14 13 14 14 13
3 3 3 3 3 3 4 3 4 4 4 4 4 9 14 15 11 11 11 11 11 12 13 12 13 14 15 17 15 14 16 15 16 15 15 15 16 15 15 14 15 14 14 13 13
3 3 3 3 4 4 4 4 4 4 4 4 3 12 17 11 12 11 11 11 11 11 12 12 11 13 15 15 16 17 17 19 16 15 15 16 18 15 14 15 16 15 15 13 13
3 3 3 4 4 4 4 3 5 4 4 3 11 14 17 9 12 11 12 13 12 11 12 11 12 15 15 18 18 18 21 20 17 15 16 17 19 15 14 15 15 16 15 14 14
4 3 4 4 4 4 3 3 5 7 9 9 11 14 14 15 12 12 12 12 13 13 12 13 15 18 19 19 21 22 21 19 20 17 17 18 17 15 14 14 15 15 15 15 14
4 3 4 4 4 4 6 9 12 12 13 16 15 15 14 12 11 13 12 13 13 15 18 16 20 22 21 19 18 19 20 21 18 16 18 19 18 16 15 15 16 16 15 15 14
5 4 4 4 4 5 10 13 13 13 17 13 13 14 13 13 15 14 12 15 15 19 17 19 22 19 17 17 18 19 20 20 18 17 18 19 18 16 15 15 15 15 15 15 14
6 4 5 5 5 10 13 13 10 11 17 16 14 15 15 14 17 16 14 15 17 18 20 20 19 17 17 19 19 19 20 21 20 18 18 19 20 17 16 15 15 14 14 14 13
6 6 6 5 10 12 14 11 11 12 23 18 17 15 14 14 17 14 14 15 17 19 20 20 19 18 19 19 19 21 18 18 19 21 22 19 22 20 17 17 15 15 15 14 13
6 7 7 7 13 15 13 11 12 14 26 18 17 14 14 16 17 16 14 15 19 19 18 21 21 20 20 19 18 19 18 20 19 22 23 22 24 20 18 18 17 16 14 14 13
5 5 6 10 12 12 10 11 12 20 26 22 18 19 18 16 17 16 16 15 16 19 19 21 18 19 19 18 18 17 19 20 21 22 26 22 22 20 19 17 17 15 14 14 14
5 6 8 8 12 10 11 12 19 24 20 22 22 19 19 20 18 18 19 20 20 23 22 21 21 19 18 20 18 19 21 24 25 25 24 21 22 19 17 16 15 15 14 14 14
5 6 8 9 9 11 12 17 24 23 23 18 19 19 21 20 20 20 21 22 21 20 24 23 23 20 18 20 21 21 21 23 26 24 23 21 22 18 15 15 14 14 14 14 13
5 8 9 10 9 12 16 24 22 21 17 19 19 22 24 20 21 21 21 22 20 20 22 24 21 19 18 18 19 20 23 20 24 25 25 22 20 16 15 15 16 15 15 14 14
10 10 10 9 10 13 20 20 21 16 16 17 20 19 25 24 22 22 22 20 19 18 20 20 23 20 19 18 18 20 18 22 23 28 29 22 20 18 17 16 16 16 15 14 14
10 14 11 9 11 17 22 22 20 16 16 17 19 21 19 22 22 24 22 20 18 19 18 24 22 20 20 22 21 21 22 22 23 22 25 25 22 17 16 16 16 16 14 14 14
10 15 11 11 19 19 23 20 16 18 18 18 18 17 18 19 23 21 22 19 16 17 20 19 23 23 22 20 19 19 20 21 25 25 23 22 23 15 16 15 16 15 14 14 13
12 13 11 11 21 22 19 19 18 17 18 19 19 18 17 18 22 20 18 17 16 18 20 20 24 28 23 22 21 24 20 19 20 21 26 26 21 16 16 16 16 16 15 14 14
13 15 14 13 15 15 20 20 20 16 16 16 18 18 19 19 18 22 18 18 17 17 14 16 21 22 23 23 24 26 25 20 23 27 23 22 18 15 15 15 14 14 15 14 14
12 14 14 18 17 19 17 18 18 19 18 16 18 18 20 23 20 20 19 19 18 15 17 20 26 24 23 21 23 23 24 22 22 20 23 18 20 16 15 15 15 15 14 14 14
13 14 15 14 14 16 15 18 17 17 18 18 18 17 18 20 18 20 19 19 20 18 19 19 27 26 27 21 21 23 22 20 20 20 20 19 20 15 15 14 15 15 15 15 14
10 12 12 13 15 15 15 14 16 15 16 16 16 16 18 16 14 16 16 16 17 18 19 21 24 28 29 22 23 26 23 21 21 20 19 22 18 15 16 16 16 15 15 15 14